Regional Weather Roundup
Issued by NWS Goodland, KS

Home | Current Version | Previous Version | Graphics & Text | Print | Product List | Glossary On
Versions: 1 2 3 4 5 6 7 8 9 10 11 12 13 14 15 16 17 18 19 20 21 22 23 24 25 26 27 28 29 30 31 32 33 34 35 36 37 38 39 40 41 42 43 44 45 46 47 48 49 50
000
ASUS43 KGLD 181408
RWRGLD

GOODLAND FORECAST AREA HOURLY WEATHER ROUNDUP
NATIONAL WEATHER SERVICE GOODLAND KS
800 AM MDT FRI APR 18 2014

...OFFICIAL OBSERVATIONS...

CITY           SKY/WX    TMP DP  RH WIND       PRES   REMARKS
GOODLAND KS    SUNNY     42  36  79 S20       30.07S
HILL CITY KS   SUNNY     47  40  76 S10       30.16S
IMPERIAL NEB   SUNNY     44  36  73 S18       30.04F
MCCOOK NEB     SUNNY     45  39  79 S15       30.11R
AKRON CO       MOSUNNY   53  36  52 SW14      29.99S
BURLINGTON CO  SUNNY     42  36  79 S17       30.06R
LIMON CO       MOSUNNY   36  33  89 CALM      30.06R
$$

...UNOFFICIAL OBSERVATIONS...

CITY           SKY/WX    TMP DP  RH WIND       PRES   REMARKS
COLBY KS       SUNNY     45  41  87 S16G24    30.09S
LENORA KS        N/A     46  32  58 S17         N/A
LEOTI KS         N/A     43  32  65 SW13        N/A
NORTON KS      SUNNY     45  37  76 S15G22    30.12F
OBERLIN KS     FAIR      45  39  81 S20       30.10S
SHARON SPRINGS   N/A     41  38  91 S17         N/A
ST FRANCIS KS  SUNNY     43  36  75 S17       30.05F
WAKEENEY KS      N/A     47  40  74 MISG        N/A
TRENTON NEB      N/A     44  32  63 S12         N/A
KIT CARSON CO    N/A     34  31  90 MISG        N/A
$$



USA.gov is the U.S. government's official web portal to all federal, state and local government web resources and services.